Time,TemperatureF,DewpointF,PressureIn,WindDirection,WindDirectionDegrees,WindSpeedMPH,WindSpeedGustMPH,Humidity,HourlyPrecipIn,Conditions,Clouds,dailyrainin,SoftwareType,DateUTC
2013-05-24 00:02:00,61.1,59.7,29.82,WSW,246,0.2,1.0,95,0.00,NA,NA,0.62,WeatherLink_script,2013-05-24 04:02:00,
2013-05-24 00:03:00,61.1,59.7,29.82,WSW,246,0.2,1.0,95,0.00,NA,NA,0.62,WeatherLink_script,2013-05-24 04:03:00,
2013-05-24 00:04:00,61.2,59.8,29.82,WSW,246,0.2,1.0,95,0.00,NA,NA,0.62,WeatherLink_script,2013-05-24 04:04:00,
2013-05-24 00:06:00,61.1,59.7,29.82,WSW,246,0.7,2.0,95,0.00,NA,NA,0.62,WeatherLink_script,2013-05-24 04:06:00,
2013-05-24 00:07:00,61.1,59.7,29.82,WSW,246,0.7,2.0,95,0.00,NA,NA,0.62,WeatherLink_script,2013-05-24 04:07:00,
2013-05-24 00:12:00,61.1,59.7,29.82,WSW,247,0.0,0.0,95,0.00,NA,NA,0.62,WeatherLink_script,2013-05-24 04:12:00,
2013-05-24 00:17:00,61.1,59.7,29.82,WSW,247,0.0,0.0,95,0.00,NA,NA,0.62,WeatherLink_script,2013-05-24 04:17:00,
2013-05-24 00:22:00,61.1,59.7,29.82,WSW,246,0.7,2.0,95,0.00,NA,NA,0.62,WeatherLink_script,2013-05-24 04:22:00,
2013-05-24 00:27:00,61.1,59.7,29.83,WSW,247,0.0,0.0,95,0.00,NA,NA,0.62,WeatherLink_script,2013-05-24 04:27:00,
2013-05-24 00:32:00,61.1,59.7,29.82,WSW,247,0.0,0.0,95,0.00,NA,NA,0.62,WeatherLink_script,2013-05-24 04:32:00,
2013-05-24 00:37:00,61.1,59.7,29.82,WSW,247,0.0,0.0,95,0.00,NA,NA,0.62,WeatherLink_script,2013-05-24 04:37:00,
2013-05-24 00:42:00,61.1,60.0,29.82,WSW,247,0.0,0.0,96,0.00,NA,NA,0.62,WeatherLink_script,2013-05-24 04:42:00,
2013-05-24 00:47:00,61.1,59.7,29.82,WSW,247,0.0,0.0,95,0.00,NA,NA,0.62,WeatherLink_script,2013-05-24 04:47:00,
2013-05-24 00:52:00,61.1,59.7,29.82,WSW,247,0.0,0.0,95,0.00,NA,NA,0.62,WeatherLink_script,2013-05-24 04:52:00,
2013-05-24 00:57:00,61.3,59.9,29.82,WSW,247,0.0,0.0,95,0.00,NA,NA,0.62,WeatherLink_script,2013-05-24 04:57:00,
2013-05-24 01:02:00,61.3,59.9,29.82,WSW,247,0.1,1.0,95,0.00,NA,NA,0.62,WeatherLink_script,2013-05-24 05:02:00,
2013-05-24 01:07:00,61.3,59.9,29.82,WSW,246,0.6,2.0,95,0.00,NA,NA,0.62,WeatherLink_script,2013-05-24 05:07:00,
2013-05-24 01:12:00,61.3,59.9,29.82,WSW,246,0.8,2.0,95,0.00,NA,NA,0.62,WeatherLink_script,2013-05-24 05:12:00,
2013-05-24 01:17:00,61.3,59.9,29.82,WSW,247,0.0,0.0,95,0.00,NA,NA,0.62,WeatherLink_script,2013-05-24 05:17:00,
2013-05-24 01:22:00,61.3,59.9,29.82,WSW,247,0.0,0.0,95,0.00,NA,NA,0.62,WeatherLink_script,2013-05-24 05:22:00,
2013-05-24 01:27:00,61.4,59.9,29.82,WSW,246,0.4,1.0,95,0.00,NA,NA,0.62,WeatherLink_script,2013-05-24 05:27:00,
2013-05-24 01:32:00,61.4,59.9,29.82,WSW,247,0.1,1.0,95,0.00,NA,NA,0.62,WeatherLink_script,2013-05-24 05:32:00,
2013-05-24 01:37:00,61.3,59.9,29.82,WSW,246,0.7,2.0,95,0.00,NA,NA,0.62,WeatherLink_script,2013-05-24 05:37:00,
2013-05-24 01:42:00,61.3,59.9,29.81,WSW,246,1.5,2.0,95,0.00,NA,NA,0.62,WeatherLink_script,2013-05-24 05:42:00,
2013-05-24 01:47:00,61.1,59.7,29.82,WSW,246,0.6,2.0,95,0.00,NA,NA,0.62,WeatherLink_script,2013-05-24 05:47:00,
2013-05-24 01:52:00,61.1,59.7,29.82,WSW,246,1.3,3.0,95,0.00,NA,NA,0.62,WeatherLink_script,2013-05-24 05:52:00,
2013-05-24 01:57:00,61.1,59.7,29.82,WSW,246,0.6,2.0,95,0.00,NA,NA,0.62,WeatherLink_script,2013-05-24 05:57:00,
2013-05-24 02:02:00,60.9,59.5,29.82,SW,226,0.2,2.0,95,0.00,NA,NA,0.62,WeatherLink_script,2013-05-24 06:02:00,
2013-05-24 02:07:00,60.9,59.8,29.82,SW,225,2.2,3.0,96,0.00,NA,NA,0.62,WeatherLink_script,2013-05-24 06:07:00,
2013-05-24 02:12:00,60.9,59.8,29.81,SW,225,0.5,2.0,96,0.00,NA,NA,0.62,WeatherLink_script,2013-05-24 06:12:00,
2013-05-24 02:17:00,60.9,59.7,29.81,SW,225,0.7,2.0,96,0.00,NA,NA,0.62,WeatherLink_script,2013-05-24 06:17:00,
2013-05-24 02:22:00,60.8,59.7,29.81,SW,225,0.8,2.0,96,0.00,NA,NA,0.62,WeatherLink_script,2013-05-24 06:22:00,
2013-05-24 02:27:00,60.8,59.7,29.81,SW,225,1.6,3.0,96,0.00,NA,NA,0.62,WeatherLink_script,2013-05-24 06:27:00,
2013-05-24 02:32:00,60.8,59.7,29.81,SW,225,1.5,2.0,96,0.00,NA,NA,0.62,WeatherLink_script,2013-05-24 06:32:00,
2013-05-24 02:37:00,60.8,59.7,29.80,SW,226,0.8,2.0,96,0.00,NA,NA,0.62,WeatherLink_script,2013-05-24 06:37:00,
2013-05-24 02:42:00,60.8,59.7,29.80,SW,225,1.7,2.0,96,0.00,NA,NA,0.62,WeatherLink_script,2013-05-24 06:42:00,
2013-05-24 02:47:00,60.8,59.7,29.80,SW,225,1.2,3.0,96,0.00,NA,NA,0.62,WeatherLink_script,2013-05-24 06:47:00,
2013-05-24 02:52:00,60.8,59.7,29.80,SW,226,0.3,1.0,96,0.00,NA,NA,0.62,WeatherLink_script,2013-05-24 06:52:00,
2013-05-24 02:57:00,60.8,59.7,29.81,SW,226,0.5,2.0,96,0.00,NA,NA,0.62,WeatherLink_script,2013-05-24 06:57:00,
2013-05-24 03:02:00,60.8,59.7,29.80,SW,226,0.8,2.0,96,0.00,NA,NA,0.62,WeatherLink_script,2013-05-24 07:02:00,
2013-05-24 03:07:00,60.8,59.7,29.80,SW,225,0.8,2.0,96,0.00,NA,NA,0.62,WeatherLink_script,2013-05-24 07:07:00,
2013-05-24 03:12:00,60.8,59.7,29.80,SW,226,0.2,2.0,96,0.00,NA,NA,0.62,WeatherLink_script,2013-05-24 07:12:00,
2013-05-24 03:17:00,60.8,59.7,29.80,SW,225,0.6,1.0,96,0.00,NA,NA,0.62,WeatherLink_script,2013-05-24 07:17:00,
2013-05-24 03:22:00,60.9,59.4,29.80,SW,225,1.3,3.0,95,0.00,NA,NA,0.62,WeatherLink_script,2013-05-24 07:22:00,
2013-05-24 03:27:00,60.9,59.5,29.79,SW,225,0.4,1.0,95,0.00,NA,NA,0.62,WeatherLink_script,2013-05-24 07:27:00,
2013-05-24 03:32:00,61.0,59.6,29.79,SW,225,0.4,1.0,95,0.00,NA,NA,0.62,WeatherLink_script,2013-05-24 07:32:00,
2013-05-24 03:37:00,61.0,59.6,29.79,SW,225,0.4,1.0,95,0.00,NA,NA,0.62,WeatherLink_script,2013-05-24 07:37:00,
2013-05-24 03:42:00,61.0,59.6,29.79,SW,226,0.2,1.0,95,0.00,NA,NA,0.62,WeatherLink_script,2013-05-24 07:42:00,
2013-05-24 03:47:00,61.0,59.5,29.79,SW,225,0.7,2.0,95,0.00,NA,NA,0.62,WeatherLink_script,2013-05-24 07:47:00,
2013-05-24 03:52:00,61.0,59.6,29.79,SW,225,0.6,2.0,95,0.00,NA,NA,0.62,WeatherLink_script,2013-05-24 07:52:00,
2013-05-24 03:57:00,61.0,59.5,29.79,SW,225,0.6,2.0,95,0.00,NA,NA,0.62,WeatherLink_script,2013-05-24 07:57:00,
2013-05-24 04:02:00,61.0,59.3,29.79,SW,225,0.6,2.0,94,0.00,NA,NA,0.62,WeatherLink_script,2013-05-24 08:02:00,
2013-05-24 04:07:00,61.0,59.2,29.79,SW,225,1.5,4.0,94,0.00,NA,NA,0.62,WeatherLink_script,2013-05-24 08:07:00,
2013-05-24 04:12:00,61.1,59.4,29.79,WSW,242,0.3,1.0,94,0.00,NA,NA,0.62,WeatherLink_script,2013-05-24 08:12:00,
2013-05-24 04:17:00,61.1,59.1,29.80,WSW,243,0.5,1.0,93,0.00,NA,NA,0.62,WeatherLink_script,2013-05-24 08:17:00,
2013-05-24 04:22:00,61.1,59.1,29.79,WSW,242,1.1,2.0,93,0.00,NA,NA,0.62,WeatherLink_script,2013-05-24 08:22:00,
2013-05-24 04:27:00,61.1,59.1,29.79,WSW,243,0.3,1.0,93,0.00,NA,NA,0.62,WeatherLink_script,2013-05-24 08:27:00,
2013-05-24 04:32:00,61.1,59.1,29.79,SW,227,0.4,1.0,93,0.00,NA,NA,0.62,WeatherLink_script,2013-05-24 08:32:00,
2013-05-24 04:37:00,61.1,59.1,29.80,SW,227,0.6,3.0,93,0.00,NA,NA,0.62,WeatherLink_script,2013-05-24 08:37:00,
2013-05-24 04:42:00,61.1,58.8,29.79,SW,227,1.5,3.0,92,0.00,NA,NA,0.62,WeatherLink_script,2013-05-24 08:42:00,
2013-05-24 04:47:00,61.1,58.8,29.80,SW,227,0.3,1.0,92,0.00,NA,NA,0.61,WeatherLink_script,2013-05-24 08:47:00,
2013-05-24 04:52:00,61.1,58.5,29.80,SW,227,0.7,2.0,91,0.00,NA,NA,0.61,WeatherLink_script,2013-05-24 08:52:00,
2013-05-24 04:57:00,61.1,58.8,29.80,SW,234,1.0,2.0,92,0.00,NA,NA,0.61,WeatherLink_script,2013-05-24 08:57:00,
2013-05-24 05:02:00,61.1,58.8,29.80,WSW,251,0.5,2.0,92,0.00,NA,NA,0.61,WeatherLink_script,2013-05-24 09:02:00,
2013-05-24 05:07:00,61.1,58.8,29.80,WSW,246,1.2,3.0,92,0.00,NA,NA,0.61,WeatherLink_script,2013-05-24 09:07:00,
2013-05-24 05:12:00,61.1,58.5,29.80,WSW,247,0.5,2.0,91,0.00,NA,NA,0.61,WeatherLink_script,2013-05-24 09:12:00,
2013-05-24 05:17:00,61.1,58.5,29.81,WSW,246,0.2,1.0,91,0.00,NA,NA,0.61,WeatherLink_script,2013-05-24 09:17:00,
2013-05-24 05:22:00,61.1,58.5,29.81,WSW,246,0.3,1.0,91,0.00,NA,NA,0.61,WeatherLink_script,2013-05-24 09:22:00,
2013-05-24 05:27:00,61.1,58.1,29.81,WSW,247,0.2,1.0,90,0.00,NA,NA,0.61,WeatherLink_script,2013-05-24 09:27:00,
2013-05-24 05:32:00,61.1,58.1,29.81,WSW,247,0.0,0.0,90,0.00,NA,NA,0.61,WeatherLink_script,2013-05-24 09:32:00,
2013-05-24 05:37:00,61.1,58.1,29.81,WSW,247,0.0,0.0,90,0.00,NA,NA,0.61,WeatherLink_script,2013-05-24 09:37:00,
2013-05-24 05:42:00,61.1,58.1,29.81,WSW,247,0.0,0.0,90,0.00,NA,NA,0.61,WeatherLink_script,2013-05-24 09:42:00,
2013-05-24 05:47:00,61.1,57.8,29.81,WSW,243,0.0,0.0,89,0.00,NA,NA,0.61,WeatherLink_script,2013-05-24 09:47:00,
2013-05-24 05:52:00,61.1,57.8,29.82,WSW,243,0.0,0.0,89,0.00,NA,NA,0.61,WeatherLink_script,2013-05-24 09:52:00,
2013-05-24 05:57:00,61.1,58.1,29.82,WSW,243,0.0,0.0,90,0.00,NA,NA,0.61,WeatherLink_script,2013-05-24 09:57:00,
2013-05-24 06:02:00,61.0,57.7,29.83,WSW,243,1.0,2.0,89,0.00,NA,NA,0.61,WeatherLink_script,2013-05-24 10:02:00,
2013-05-24 06:07:00,61.0,57.7,29.83,WSW,243,0.4,1.0,89,0.00,NA,NA,0.61,WeatherLink_script,2013-05-24 10:07:00,
2013-05-24 06:12:00,61.0,57.7,29.83,WSW,243,0.4,1.0,89,0.00,NA,NA,0.61,WeatherLink_script,2013-05-24 10:12:00,
2013-05-24 06:17:00,61.1,57.8,29.83,WSW,243,0.9,2.0,89,0.00,NA,NA,0.61,WeatherLink_script,2013-05-24 10:17:00,
2013-05-24 06:22:00,61.1,57.5,29.83,WSW,248,0.5,2.0,88,0.00,NA,NA,0.61,WeatherLink_script,2013-05-24 10:22:00,
2013-05-24 06:27:00,61.1,57.5,29.83,WSW,250,0.2,1.0,88,0.00,NA,NA,0.61,WeatherLink_script,2013-05-24 10:27:00,
2013-05-24 06:32:00,61.1,57.5,29.84,WSW,249,0.8,2.0,88,0.00,NA,NA,0.61,WeatherLink_script,2013-05-24 10:32:00,
2013-05-24 06:37:00,61.1,57.5,29.84,WSW,249,0.9,2.0,88,0.00,NA,NA,0.61,WeatherLink_script,2013-05-24 10:37:00,
2013-05-24 06:42:00,61.1,57.8,29.85,WSW,249,0.9,2.0,89,0.00,NA,NA,0.61,WeatherLink_script,2013-05-24 10:42:00,
2013-05-24 06:47:00,61.1,57.8,29.85,WSW,249,0.8,3.0,89,0.00,NA,NA,0.61,WeatherLink_script,2013-05-24 10:47:00,
2013-05-24 06:52:00,61.1,57.8,29.85,WSW,249,0.6,2.0,89,0.00,NA,NA,0.61,WeatherLink_script,2013-05-24 10:52:00,
2013-05-24 06:57:00,61.1,57.5,29.85,West,259,0.0,0.0,88,0.00,NA,NA,0.61,WeatherLink_script,2013-05-24 10:57:00,
2013-05-24 07:02:00,61.1,57.5,29.85,West,259,0.0,0.0,88,0.00,NA,NA,0.61,WeatherLink_script,2013-05-24 11:02:00,
2013-05-24 07:07:00,61.1,57.5,29.85,West,259,0.1,1.0,88,0.00,NA,NA,0.61,WeatherLink_script,2013-05-24 11:07:00,
2013-05-24 07:12:00,61.1,57.2,29.85,West,259,0.4,1.0,87,0.00,NA,NA,0.61,WeatherLink_script,2013-05-24 11:12:00,
2013-05-24 07:17:00,61.1,57.2,29.85,West,259,0.7,1.0,87,0.00,NA,NA,0.61,WeatherLink_script,2013-05-24 11:17:00,
2013-05-24 07:22:00,61.1,57.2,29.86,West,259,0.7,2.0,87,0.00,NA,NA,0.61,WeatherLink_script,2013-05-24 11:22:00,
2013-05-24 07:27:00,61.1,57.2,29.86,West,259,0.7,2.0,87,0.00,NA,NA,0.61,WeatherLink_script,2013-05-24 11:27:00,
2013-05-24 07:32:00,61.3,57.7,29.86,West,260,0.7,2.0,88,0.00,NA,NA,0.61,WeatherLink_script,2013-05-24 11:32:00,
2013-05-24 07:37:00,61.3,58.0,29.87,West,260,1.4,3.0,89,0.00,NA,NA,0.61,WeatherLink_script,2013-05-24 11:37:00,
2013-05-24 07:42:00,61.1,57.5,29.87,NW,323,1.8,4.0,88,0.00,NA,NA,0.61,WeatherLink_script,2013-05-24 11:42:00,
2013-05-24 07:47:00,61.1,57.8,29.87,NNW,340,1.5,4.0,89,0.00,NA,NA,0.61,WeatherLink_script,2013-05-24 11:47:00,
2013-05-24 07:52:00,61.0,58.0,29.88,NNW,344,0.5,2.0,90,0.00,NA,NA,0.61,WeatherLink_script,2013-05-24 11:52:00,
2013-05-24 07:57:00,60.8,57.5,29.88,NNW,339,0.7,3.0,89,0.00,NA,NA,0.61,WeatherLink_script,2013-05-24 11:57:00,
2013-05-24 08:02:00,60.8,57.5,29.88,NNW,345,1.2,2.0,89,0.00,NA,NA,0.61,WeatherLink_script,2013-05-24 12:02:00,
2013-05-24 08:07:00,60.5,57.0,29.89,NW,326,1.4,2.0,88,0.00,NA,NA,0.61,WeatherLink_script,2013-05-24 12:07:00,
2013-05-24 08:12:00,60.3,56.1,29.89,NNW,327,2.3,4.0,86,0.00,NA,NA,0.61,WeatherLink_script,2013-05-24 12:12:00,
2013-05-24 08:17:00,60.0,55.8,29.90,NNW,339,1.9,3.0,86,0.00,NA,NA,0.61,WeatherLink_script,2013-05-24 12:17:00,
2013-05-24 08:22:00,59.8,54.9,29.90,NW,326,3.9,7.0,84,0.00,NA,NA,0.61,WeatherLink_script,2013-05-24 12:22:00,
2013-05-24 08:27:00,59.5,54.3,29.90,NNE,19,1.3,2.0,83,0.00,NA,NA,0.61,WeatherLink_script,2013-05-24 12:27:00,
2013-05-24 08:32:00,59.2,53.4,29.91,NNW,348,3.1,5.0,81,0.00,NA,NA,0.61,WeatherLink_script,2013-05-24 12:32:00,
2013-05-24 08:37:00,58.9,52.4,29.91,North,357,2.9,5.0,79,0.00,NA,NA,0.61,WeatherLink_script,2013-05-24 12:37:00,
2013-05-24 08:42:00,58.5,52.4,29.91,North,11,3.2,6.0,80,0.00,NA,NA,0.61,WeatherLink_script,2013-05-24 12:42:00,
2013-05-24 08:47:00,58.3,52.2,29.92,North,357,2.4,4.0,80,0.00,NA,NA,0.61,WeatherLink_script,2013-05-24 12:47:00,
2013-05-24 08:52:00,57.9,51.1,29.92,North,353,4.7,9.0,78,0.00,NA,NA,0.61,WeatherLink_script,2013-05-24 12:52:00,
2013-05-24 08:57:00,57.7,50.5,29.92,NNW,335,3.4,6.0,77,0.00,NA,NA,0.61,WeatherLink_script,2013-05-24 12:57:00,
2013-05-24 09:02:00,57.4,50.2,29.93,NW,324,3.2,4.0,77,0.00,NA,NA,0.61,WeatherLink_script,2013-05-24 13:02:00,
2013-05-24 09:07:00,57.3,49.8,29.93,NNE,14,2.7,4.0,76,0.00,NA,NA,0.61,WeatherLink_script,2013-05-24 13:07:00,
2013-05-24 09:12:00,57.0,49.9,29.93,NW,310,5.0,14.0,77,0.00,NA,NA,0.61,WeatherLink_script,2013-05-24 13:12:00,
2013-05-24 09:17:00,56.8,48.2,29.94,North,3,3.2,7.0,73,0.00,NA,NA,0.61,WeatherLink_script,2013-05-24 13:17:00,
2013-05-24 09:22:00,56.7,48.5,29.94,West,265,3.8,7.0,74,0.00,NA,NA,0.61,WeatherLink_script,2013-05-24 13:22:00,
2013-05-24 09:27:00,56.5,47.9,29.94,NW,322,5.2,11.0,73,0.00,NA,NA,0.61,WeatherLink_script,2013-05-24 13:27:00,
2013-05-24 09:32:00,56.4,47.5,29.94,WNW,293,4.3,6.0,72,0.00,NA,NA,0.61,WeatherLink_script,2013-05-24 13:32:00,
2013-05-24 09:37:00,56.4,47.5,29.95,NW,320,3.9,6.0,72,0.00,NA,NA,0.61,WeatherLink_script,2013-05-24 13:37:00,
2013-05-24 09:42:00,56.5,47.6,29.94,NW,318,5.0,10.0,72,0.00,NA,NA,0.61,WeatherLink_script,2013-05-24 13:42:00,
2013-05-24 09:47:00,56.4,46.7,29.95,NNW,338,4.0,5.0,70,0.00,NA,NA,0.61,WeatherLink_script,2013-05-24 13:47:00,
2013-05-24 09:52:00,56.4,47.8,29.95,NW,318,3.4,5.0,73,0.00,NA,NA,0.61,WeatherLink_script,2013-05-24 13:52:00,
2013-05-24 09:57:00,56.2,48.0,29.95,NW,316,5.1,6.0,74,0.00,NA,NA,0.61,WeatherLink_script,2013-05-24 13:57:00,
2013-05-24 10:02:00,55.9,47.0,29.96,WNW,286,6.0,11.0,72,0.00,NA,NA,0.61,WeatherLink_script,2013-05-24 14:02:00,
2013-05-24 10:07:00,55.9,47.4,29.96,North,351,3.8,6.0,73,0.00,NA,NA,0.61,WeatherLink_script,2013-05-24 14:07:00,
2013-05-24 10:12:00,55.8,46.9,29.96,NNW,334,3.4,6.0,72,0.00,NA,NA,0.61,WeatherLink_script,2013-05-24 14:12:00,
2013-05-24 10:17:00,55.8,47.6,29.96,NW,323,2.8,5.0,74,0.00,NA,NA,0.61,WeatherLink_script,2013-05-24 14:17:00,
2013-05-24 10:22:00,55.9,47.4,29.97,WNW,286,2.2,3.0,73,0.00,NA,NA,0.61,WeatherLink_script,2013-05-24 14:22:00,
2013-05-24 10:27:00,56.1,47.6,29.97,NW,306,2.6,5.0,73,0.00,NA,NA,0.61,WeatherLink_script,2013-05-24 14:27:00,
2013-05-24 10:32:00,56.2,48.0,29.97,WNW,297,3.4,7.0,74,0.00,NA,NA,0.61,WeatherLink_script,2013-05-24 14:32:00,
2013-05-24 10:37:00,56.2,47.3,29.97,WNW,283,5.1,9.0,72,0.00,NA,NA,0.61,WeatherLink_script,2013-05-24 14:37:00,
2013-05-24 10:42:00,56.1,47.6,29.97,NW,304,2.8,4.0,73,0.00,NA,NA,0.61,WeatherLink_script,2013-05-24 14:42:00,
2013-05-24 10:47:00,55.9,45.9,29.97,North,359,2.5,4.0,69,0.00,NA,NA,0.61,WeatherLink_script,2013-05-24 14:47:00,
2013-05-24 10:52:00,55.8,45.4,29.97,WNW,301,4.4,9.0,68,0.00,NA,NA,0.61,WeatherLink_script,2013-05-24 14:52:00,
2013-05-24 10:57:00,55.8,45.4,29.97,NW,325,5.8,9.0,68,0.00,NA,NA,0.61,WeatherLink_script,2013-05-24 14:57:00,
2013-05-24 11:02:00,55.6,46.0,29.97,NW,316,3.7,9.0,70,0.00,NA,NA,0.61,WeatherLink_script,2013-05-24 15:02:00,
2013-05-24 11:07:00,55.6,45.6,29.98,WNW,295,5.2,10.0,69,0.00,NA,NA,0.61,WeatherLink_script,2013-05-24 15:07:00,
2013-05-24 11:12:00,55.9,45.5,29.98,North,9,3.8,7.0,68,0.00,NA,NA,0.61,WeatherLink_script,2013-05-24 15:12:00,
2013-05-24 11:17:00,57.0,46.2,29.98,NW,325,4.2,7.0,67,0.00,NA,NA,0.61,WeatherLink_script,2013-05-24 15:17:00,
2013-05-24 11:22:00,57.6,45.5,29.98,NW,313,3.9,10.0,64,0.00,NA,NA,0.61,WeatherLink_script,2013-05-24 15:22:00,
2013-05-24 11:27:00,58.3,46.6,29.98,NNW,335,4.7,8.0,65,0.00,NA,NA,0.61,WeatherLink_script,2013-05-24 15:27:00,
2013-05-24 11:32:00,58.6,45.6,29.98,WNW,291,5.7,11.0,62,0.00,NA,NA,0.61,WeatherLink_script,2013-05-24 15:32:00,
2013-05-24 11:37:00,58.8,47.1,29.98,NNW,332,3.7,6.0,65,0.00,NA,NA,0.61,WeatherLink_script,2013-05-24 15:37:00,
2013-05-24 11:42:00,59.1,45.7,29.98,North,349,4.8,9.0,61,0.00,NA,NA,0.61,WeatherLink_script,2013-05-24 15:42:00,
2013-05-24 11:47:00,59.8,47.2,29.99,West,269,3.8,7.0,63,0.00,NA,NA,0.61,WeatherLink_script,2013-05-24 15:47:00,
2013-05-24 11:52:00,60.3,48.9,29.99,North,5,2.8,4.0,66,0.00,NA,NA,0.61,WeatherLink_script,2013-05-24 15:52:00,
2013-05-24 11:57:00,60.7,48.0,29.99,West,280,4.0,8.0,63,0.00,NA,NA,0.61,WeatherLink_script,2013-05-24 15:57:00,
2013-05-24 12:02:00,60.7,46.7,29.99,SSW,203,4.2,7.0,60,0.00,NA,NA,0.61,WeatherLink_script,2013-05-24 16:02:00,
2013-05-24 12:07:00,61.0,47.8,29.99,NW,309,2.7,6.0,62,0.00,NA,NA,0.61,WeatherLink_script,2013-05-24 16:07:00,
2013-05-24 12:12:00,61.0,47.0,29.99,NW,326,5.0,9.0,60,0.00,NA,NA,0.61,WeatherLink_script,2013-05-24 16:12:00,
2013-05-24 12:17:00,61.1,47.6,29.99,WNW,300,3.7,7.0,61,0.00,NA,NA,0.61,WeatherLink_script,2013-05-24 16:17:00,
2013-05-24 12:22:00,61.1,46.7,30.00,North,8,4.6,7.0,59,0.00,NA,NA,0.61,WeatherLink_script,2013-05-24 16:22:00,
2013-05-24 12:27:00,61.1,47.1,30.00,NNW,331,3.6,6.0,60,0.00,NA,NA,0.61,WeatherLink_script,2013-05-24 16:27:00,
2013-05-24 12:32:00,61.3,47.3,30.00,WNW,290,6.2,12.0,60,0.00,NA,NA,0.61,WeatherLink_script,2013-05-24 16:32:00,
2013-05-24 12:37:00,61.1,46.2,29.99,NNW,329,6.1,8.0,58,0.00,NA,NA,0.61,WeatherLink_script,2013-05-24 16:37:00,
2013-05-24 12:42:00,61.0,46.1,30.00,NW,309,3.1,6.0,58,0.00,NA,NA,0.61,WeatherLink_script,2013-05-24 16:42:00,
2013-05-24 12:47:00,60.8,46.4,29.99,NNW,331,2.9,5.0,59,0.00,NA,NA,0.61,WeatherLink_script,2013-05-24 16:47:00,
2013-05-24 12:52:00,61.1,47.6,29.99,WNW,283,4.6,9.0,61,0.00,NA,NA,0.61,WeatherLink_script,2013-05-24 16:52:00,
2013-05-24 12:57:00,61.1,45.3,29.99,WNW,290,5.7,9.0,56,0.00,NA,NA,0.61,WeatherLink_script,2013-05-24 16:57:00,
2013-05-24 13:02:00,61.1,47.1,30.00,North,357,3.9,6.0,60,0.00,NA,NA,0.61,WeatherLink_script,2013-05-24 17:02:00,
2013-05-24 13:07:00,61.3,47.3,29.99,NNE,12,4.1,6.0,60,0.00,NA,NA,0.61,WeatherLink_script,2013-05-24 17:07:00,
2013-05-24 13:12:00,61.6,47.1,30.00,WNW,301,3.5,9.0,59,0.00,NA,NA,0.61,WeatherLink_script,2013-05-24 17:12:00,
2013-05-24 13:17:00,61.6,46.2,29.99,WNW,288,7.2,11.0,57,0.00,NA,NA,0.61,WeatherLink_script,2013-05-24 17:17:00,
2013-05-24 13:22:00,61.9,45.6,29.99,SW,227,5.9,11.0,55,0.00,NA,NA,0.61,WeatherLink_script,2013-05-24 17:22:00,
2013-05-24 13:27:00,61.9,47.0,30.00,NW,313,5.2,11.0,58,0.00,NA,NA,0.61,WeatherLink_script,2013-05-24 17:27:00,
2013-05-24 13:32:00,62.0,46.6,30.00,North,1,4.5,8.0,57,0.00,NA,NA,0.61,WeatherLink_script,2013-05-24 17:32:00,
2013-05-24 13:37:00,62.3,46.4,30.00,NW,320,6.0,16.0,56,0.00,NA,NA,0.61,WeatherLink_script,2013-05-24 17:37:00,
2013-05-24 13:42:00,62.2,45.8,30.00,NW,323,3.6,6.0,55,0.00,NA,NA,0.61,WeatherLink_script,2013-05-24 17:42:00,
2013-05-24 13:47:00,62.4,46.0,30.00,NE,44,6.9,12.0,55,0.00,NA,NA,0.61,WeatherLink_script,2013-05-24 17:47:00,
2013-05-24 13:52:00,62.0,46.1,30.00,WNW,282,5.9,9.0,56,0.00,NA,NA,0.61,WeatherLink_script,2013-05-24 17:52:00,
2013-05-24 13:57:00,61.9,45.1,30.01,North,11,4.5,15.0,54,0.00,NA,NA,0.61,WeatherLink_script,2013-05-24 17:57:00,
2013-05-24 14:02:00,62.2,47.7,30.01,WSW,254,3.7,6.0,59,0.00,NA,NA,0.61,WeatherLink_script,2013-05-24 18:02:00,
2013-05-24 14:07:00,62.5,46.6,30.01,West,272,4.1,8.0,56,0.00,NA,NA,0.61,WeatherLink_script,2013-05-24 18:07:00,
2013-05-24 14:12:00,62.7,45.8,30.00,WSW,242,6.7,11.0,54,0.00,NA,NA,0.61,WeatherLink_script,2013-05-24 18:12:00,
2013-05-24 14:17:00,62.7,45.8,30.00,WNW,302,4.6,9.0,54,0.00,NA,NA,0.61,WeatherLink_script,2013-05-24 18:17:00,
2013-05-24 14:22:00,63.0,46.6,30.00,North,6,5.0,10.0,55,0.00,NA,NA,0.61,WeatherLink_script,2013-05-24 18:22:00,
2013-05-24 14:27:00,62.7,45.8,30.01,NW,304,5.4,12.0,54,0.00,NA,NA,0.61,WeatherLink_script,2013-05-24 18:27:00,
2013-05-24 14:32:00,62.0,45.6,30.01,NW,320,4.8,9.0,55,0.00,NA,NA,0.61,WeatherLink_script,2013-05-24 18:32:00,
2013-05-24 14:37:00,61.6,45.3,30.01,North,0,1.9,4.0,55,0.00,NA,NA,0.61,WeatherLink_script,2013-05-24 18:37:00,
2013-05-24 14:42:00,61.6,45.7,30.01,WNW,291,4.1,7.0,56,0.00,NA,NA,0.61,WeatherLink_script,2013-05-24 18:42:00,
2013-05-24 14:47:00,61.9,45.6,30.01,NW,311,3.1,5.0,55,0.00,NA,NA,0.61,WeatherLink_script,2013-05-24 18:47:00,
2013-05-24 14:52:00,61.6,44.3,30.01,WNW,301,3.0,7.0,53,0.00,NA,NA,0.61,WeatherLink_script,2013-05-24 18:52:00,
2013-05-24 14:57:00,60.9,43.7,30.02,NNW,335,6.4,9.0,53,0.00,NA,NA,0.61,WeatherLink_script,2013-05-24 18:57:00,
2013-05-24 15:02:00,60.6,42.4,30.01,NNE,25,7.4,11.0,51,0.00,NA,NA,0.61,WeatherLink_script,2013-05-24 19:02:00,
2013-05-24 15:07:00,60.2,42.5,30.02,NNW,337,4.6,8.0,52,0.00,NA,NA,0.61,WeatherLink_script,2013-05-24 19:07:00,
2013-05-24 15:12:00,60.3,42.1,30.02,NNW,330,3.9,7.0,51,0.00,NA,NA,0.61,WeatherLink_script,2013-05-24 19:12:00,
2013-05-24 15:17:00,60.7,43.5,30.02,NNW,341,4.7,10.0,53,0.00,NA,NA,0.61,WeatherLink_script,2013-05-24 19:17:00,
2013-05-24 15:22:00,60.6,42.9,30.02,NNW,342,2.5,5.0,52,0.00,NA,NA,0.61,WeatherLink_script,2013-05-24 19:22:00,
2013-05-24 15:27:00,61.1,43.3,30.02,NNW,347,2.8,4.0,52,0.00,NA,NA,0.61,WeatherLink_script,2013-05-24 19:27:00,
2013-05-24 15:32:00,61.6,42.8,30.02,West,274,5.0,8.0,50,0.00,NA,NA,0.61,WeatherLink_script,2013-05-24 19:32:00,
2013-05-24 15:37:00,61.6,44.3,30.02,West,267,2.0,4.0,53,0.00,NA,NA,0.54,WeatherLink_script,2013-05-24 19:37:00,
2013-05-24 15:42:00,61.9,44.6,30.03,NNW,335,2.5,5.0,53,0.00,NA,NA,0.44,WeatherLink_script,2013-05-24 19:42:00,
2013-05-24 15:47:00,62.0,44.1,30.03,West,275,3.9,6.0,52,0.00,NA,NA,0.26,WeatherLink_script,2013-05-24 19:47:00,
2013-05-24 15:52:00,62.0,42.6,30.03,NW,313,5.7,11.0,49,0.00,NA,NA,0.24,WeatherLink_script,2013-05-24 19:52:00,
2013-05-24 15:57:00,61.9,44.1,30.03,NE,41,4.5,8.0,52,0.00,NA,NA,0.24,WeatherLink_script,2013-05-24 19:57:00,
2013-05-24 16:02:00,61.9,43.1,30.03,NNW,341,2.2,5.0,50,0.00,NA,NA,0.24,WeatherLink_script,2013-05-24 20:02:00,
2013-05-24 16:07:00,62.2,43.9,30.03,North,359,2.0,3.0,51,0.00,NA,NA,0.24,WeatherLink_script,2013-05-24 20:07:00,
2013-05-24 16:12:00,62.4,44.0,30.03,WSW,242,4.9,7.0,51,0.00,NA,NA,0.24,WeatherLink_script,2013-05-24 20:12:00,
2013-05-24 16:17:00,62.4,43.0,30.04,NNW,338,3.4,6.0,49,0.00,NA,NA,0.24,WeatherLink_script,2013-05-24 20:17:00,
2013-05-24 16:22:00,62.4,43.0,30.03,NNE,27,4.5,7.0,49,0.00,NA,NA,0.24,WeatherLink_script,2013-05-24 20:22:00,
2013-05-24 16:27:00,62.2,42.3,30.04,West,279,4.9,7.0,48,0.00,NA,NA,0.24,WeatherLink_script,2013-05-24 20:27:00,
2013-05-24 16:32:00,62.2,42.8,30.04,WNW,290,4.3,8.0,49,0.00,NA,NA,0.24,WeatherLink_script,2013-05-24 20:32:00,
2013-05-24 16:37:00,61.9,42.0,30.04,WNW,301,3.7,7.0,48,0.00,NA,NA,0.24,WeatherLink_script,2013-05-24 20:37:00,
2013-05-24 16:42:00,61.9,42.5,30.04,North,2,2.2,3.0,49,0.00,NA,NA,0.24,WeatherLink_script,2013-05-24 20:42:00,
2013-05-24 16:47:00,61.7,41.8,30.04,NW,313,6.9,11.0,48,0.00,NA,NA,0.24,WeatherLink_script,2013-05-24 20:47:00,
2013-05-24 16:52:00,61.6,41.2,30.04,WNW,293,2.6,6.0,47,0.00,NA,NA,0.24,WeatherLink_script,2013-05-24 20:52:00,
2013-05-24 16:57:00,61.4,41.5,30.04,West,262,6.8,12.0,48,0.00,NA,NA,0.24,WeatherLink_script,2013-05-24 20:57:00,
2013-05-24 17:02:00,61.1,41.2,30.05,West,276,3.3,6.0,48,0.00,NA,NA,0.24,WeatherLink_script,2013-05-24 21:02:00,
2013-05-24 17:07:00,61.1,40.2,30.05,WNW,298,5.0,9.0,46,0.00,NA,NA,0.24,WeatherLink_script,2013-05-24 21:07:00,
2013-05-24 17:12:00,60.9,38.8,30.05,North,356,6.1,9.0,44,0.00,NA,NA,0.24,WeatherLink_script,2013-05-24 21:12:00,
2013-05-24 17:17:00,60.5,40.7,30.05,North,354,3.5,5.0,48,0.00,NA,NA,0.24,WeatherLink_script,2013-05-24 21:17:00,
2013-05-24 17:22:00,60.4,40.7,30.05,NNE,13,2.3,4.0,48,0.00,NA,NA,0.24,WeatherLink_script,2013-05-24 21:22:00,
2013-05-24 17:27:00,60.3,38.9,30.06,North,3,2.9,4.0,45,0.00,NA,NA,0.24,WeatherLink_script,2013-05-24 21:27:00,
2013-05-24 17:32:00,60.0,38.0,30.06,NW,323,4.8,11.0,44,0.00,NA,NA,0.24,WeatherLink_script,2013-05-24 21:32:00,
2013-05-24 17:37:00,59.6,37.7,30.06,WNW,295,3.2,5.0,44,0.00,NA,NA,0.24,WeatherLink_script,2013-05-24 21:37:00,
2013-05-24 17:42:00,59.4,37.5,30.07,WNW,291,5.6,11.0,44,0.00,NA,NA,0.24,WeatherLink_script,2013-05-24 21:42:00,
2013-05-24 17:47:00,59.2,39.5,30.07,North,353,2.6,7.0,48,0.00,NA,NA,0.24,WeatherLink_script,2013-05-24 21:47:00,
2013-05-24 17:52:00,59.4,40.2,30.07,North,357,2.5,4.0,49,0.00,NA,NA,0.24,WeatherLink_script,2013-05-24 21:52:00,
2013-05-24 17:57:00,59.5,40.9,30.07,WNW,286,3.3,5.0,50,0.00,NA,NA,0.24,WeatherLink_script,2013-05-24 21:57:00,
2013-05-24 18:02:00,59.4,39.7,30.07,WNW,294,4.4,7.0,48,0.00,NA,NA,0.24,WeatherLink_script,2013-05-24 22:02:00,
2013-05-24 18:07:00,58.8,39.7,30.07,WSW,250,4.2,6.0,49,0.00,NA,NA,0.24,WeatherLink_script,2013-05-24 22:07:00,
2013-05-24 18:12:00,58.5,38.9,30.07,NW,322,3.7,6.0,48,0.00,NA,NA,0.24,WeatherLink_script,2013-05-24 22:12:00,
2013-05-24 18:17:00,58.3,37.6,30.07,WNW,295,3.5,6.0,46,0.00,NA,NA,0.24,WeatherLink_script,2013-05-24 22:17:00,
2013-05-24 18:22:00,58.2,38.1,30.07,WNW,298,5.7,11.0,47,0.00,NA,NA,0.24,WeatherLink_script,2013-05-24 22:22:00,
2013-05-24 18:27:00,58.0,38.5,30.07,WNW,289,5.6,11.0,48,0.00,NA,NA,0.24,WeatherLink_script,2013-05-24 22:27:00,
2013-05-24 18:32:00,58.0,38.9,30.07,NNE,20,2.9,8.0,49,0.00,NA,NA,0.24,WeatherLink_script,2013-05-24 22:32:00,
2013-05-24 18:37:00,57.9,37.8,30.07,NW,326,6.3,10.0,47,0.00,NA,NA,0.24,WeatherLink_script,2013-05-24 22:37:00,
2013-05-24 18:42:00,57.6,37.5,30.08,NW,321,4.6,8.0,47,0.00,NA,NA,0.24,WeatherLink_script,2013-05-24 22:42:00,
2013-05-24 18:47:00,57.4,39.9,30.08,NW,325,3.6,4.0,52,0.00,NA,NA,0.24,WeatherLink_script,2013-05-24 22:47:00,
2013-05-24 18:52:00,57.3,38.3,30.08,NW,304,3.2,5.0,49,0.00,NA,NA,0.24,WeatherLink_script,2013-05-24 22:52:00,
2013-05-24 18:57:00,57.1,38.6,30.08,NW,326,4.9,8.0,50,0.00,NA,NA,0.24,WeatherLink_script,2013-05-24 22:57:00,
2013-05-24 19:02:00,57.1,38.6,30.08,NNW,342,4.7,7.0,50,0.00,NA,NA,0.24,WeatherLink_script,2013-05-24 23:02:00,
2013-05-24 19:07:00,57.0,39.1,30.08,North,359,5.7,9.0,51,0.00,NA,NA,0.24,WeatherLink_script,2013-05-24 23:07:00,
2013-05-24 19:12:00,56.8,38.9,30.09,NNW,346,3.1,4.0,51,0.00,NA,NA,0.24,WeatherLink_script,2013-05-24 23:12:00,
2013-05-24 19:17:00,56.5,36.5,30.09,NNE,27,5.5,10.0,47,0.00,NA,NA,0.24,WeatherLink_script,2013-05-24 23:17:00,
2013-05-24 19:22:00,56.4,36.9,30.09,NNW,341,3.0,4.0,48,0.00,NA,NA,0.24,WeatherLink_script,2013-05-24 23:22:00,
2013-05-24 19:27:00,56.2,37.8,30.09,WNW,294,1.6,4.0,50,0.00,NA,NA,0.24,WeatherLink_script,2013-05-24 23:27:00,
2013-05-24 19:32:00,56.1,38.2,30.10,West,262,2.3,5.0,51,0.00,NA,NA,0.24,WeatherLink_script,2013-05-24 23:32:00,
2013-05-24 19:37:00,56.0,37.7,30.10,West,276,5.0,7.0,50,0.00,NA,NA,0.24,WeatherLink_script,2013-05-24 23:37:00,
2013-05-24 19:42:00,55.8,37.9,30.10,NNW,348,2.7,4.0,51,0.00,NA,NA,0.24,WeatherLink_script,2013-05-24 23:42:00,
2013-05-24 19:47:00,55.5,37.7,30.11,NNW,336,3.5,6.0,51,0.00,NA,NA,0.24,WeatherLink_script,2013-05-24 23:47:00,
2013-05-24 19:52:00,55.3,38.0,30.11,North,350,2.7,5.0,52,0.00,NA,NA,0.24,WeatherLink_script,2013-05-24 23:52:00,
2013-05-24 19:57:00,54.9,36.6,30.11,NW,307,6.3,12.0,50,0.00,NA,NA,0.24,WeatherLink_script,2013-05-24 23:57:00,
2013-05-24 20:02:00,54.7,37.4,30.12,SW,225,1.8,8.0,52,0.00,NA,NA,0.24,WeatherLink_script,2013-05-25 00:02:00,
2013-05-24 20:07:00,54.4,36.1,30.12,NNE,19,1.1,3.0,50,0.00,NA,NA,0.24,WeatherLink_script,2013-05-25 00:07:00,
2013-05-24 20:12:00,54.3,36.1,30.11,North,8,3.0,7.0,50,0.00,NA,NA,0.24,WeatherLink_script,2013-05-25 00:12:00,
2013-05-24 20:17:00,54.0,35.8,30.12,North,359,1.3,3.0,50,0.00,NA,NA,0.24,WeatherLink_script,2013-05-25 00:17:00,
2013-05-24 20:22:00,53.9,36.7,30.12,North,359,0.7,2.0,52,0.00,NA,NA,0.24,WeatherLink_script,2013-05-25 00:22:00,
2013-05-24 20:27:00,53.6,36.4,30.12,North,0,2.2,3.0,52,0.00,NA,NA,0.24,WeatherLink_script,2013-05-25 00:27:00,
2013-05-24 20:32:00,53.3,36.2,30.12,NNE,20,0.3,1.0,52,0.00,NA,NA,0.24,WeatherLink_script,2013-05-25 00:32:00,
2013-05-24 20:37:00,53.2,36.5,30.12,West,263,1.7,4.0,53,0.00,NA,NA,0.24,WeatherLink_script,2013-05-25 00:37:00,
2013-05-24 20:42:00,52.8,36.6,30.12,SW,221,3.0,6.0,54,0.00,NA,NA,0.24,WeatherLink_script,2013-05-25 00:42:00,
2013-05-24 20:47:00,52.7,36.1,30.12,SSW,206,2.2,3.0,53,0.00,NA,NA,0.24,WeatherLink_script,2013-05-25 00:47:00,
2013-05-24 20:52:00,52.5,36.4,30.12,NW,304,4.1,7.0,54,0.00,NA,NA,0.24,WeatherLink_script,2013-05-25 00:52:00,
2013-05-24 20:57:00,52.4,35.8,30.13,NNW,331,1.1,3.0,53,0.00,NA,NA,0.24,WeatherLink_script,2013-05-25 00:57:00,
2013-05-24 21:02:00,52.3,35.7,30.13,West,261,2.8,5.0,53,0.00,NA,NA,0.24,WeatherLink_script,2013-05-25 01:02:00,
2013-05-24 21:07:00,52.0,36.4,30.13,WNW,284,2.4,5.0,55,0.00,NA,NA,0.24,WeatherLink_script,2013-05-25 01:07:00,
2013-05-24 21:12:00,51.8,37.1,30.13,North,358,2.6,5.0,57,0.00,NA,NA,0.24,WeatherLink_script,2013-05-25 01:12:00,
2013-05-24 21:17:00,51.7,36.1,30.13,NNE,20,2.6,4.0,55,0.00,NA,NA,0.24,WeatherLink_script,2013-05-25 01:17:00,
2013-05-24 21:22:00,51.5,35.9,30.13,West,277,2.5,4.0,55,0.00,NA,NA,0.24,WeatherLink_script,2013-05-25 01:22:00,
2013-05-24 21:27:00,51.5,36.3,30.14,North,0,1.6,3.0,56,0.00,NA,NA,0.23,WeatherLink_script,2013-05-25 01:27:00,
2013-05-24 21:32:00,51.4,36.2,30.14,WNW,298,4.7,7.0,56,0.00,NA,NA,0.21,WeatherLink_script,2013-05-25 01:32:00,
2013-05-24 21:37:00,51.2,36.1,30.14,NE,52,2.3,4.0,56,0.00,NA,NA,0.20,WeatherLink_script,2013-05-25 01:37:00,
2013-05-24 21:42:00,51.1,35.0,30.14,NNW,342,1.2,4.0,54,0.00,NA,NA,0.17,WeatherLink_script,2013-05-25 01:42:00,
2013-05-24 21:47:00,50.9,35.3,30.14,NE,50,1.2,2.0,55,0.00,NA,NA,0.14,WeatherLink_script,2013-05-25 01:47:00,
2013-05-24 21:52:00,50.8,35.2,30.14,SSW,211,1.5,2.0,55,0.00,NA,NA,0.14,WeatherLink_script,2013-05-25 01:52:00,
2013-05-24 21:57:00,50.6,34.1,30.15,East,97,3.8,7.0,53,0.00,NA,NA,0.13,WeatherLink_script,2013-05-25 01:57:00,
2013-05-24 22:02:00,50.6,35.0,30.15,NE,53,1.9,3.0,55,0.00,NA,NA,0.13,WeatherLink_script,2013-05-25 02:02:00,
2013-05-24 22:07:00,50.5,34.0,30.15,SSE,162,1.7,3.0,53,0.00,NA,NA,0.12,WeatherLink_script,2013-05-25 02:07:00,
2013-05-24 22:12:00,50.5,34.0,30.15,NNE,33,2.8,6.0,53,0.00,NA,NA,0.11,WeatherLink_script,2013-05-25 02:12:00,
2013-05-24 22:17:00,50.5,34.0,30.16,NNW,347,1.1,2.0,53,0.00,NA,NA,0.09,WeatherLink_script,2013-05-25 02:17:00,
2013-05-24 22:22:00,50.3,34.8,30.16,ENE,67,1.4,3.0,55,0.00,NA,NA,0.08,WeatherLink_script,2013-05-25 02:22:00,
2013-05-24 22:27:00,50.3,34.8,30.16,NNW,338,1.8,4.0,55,0.00,NA,NA,0.07,WeatherLink_script,2013-05-25 02:27:00,
2013-05-24 22:32:00,50.2,35.1,30.16,WNW,285,2.9,5.0,56,0.00,NA,NA,0.05,WeatherLink_script,2013-05-25 02:32:00,
2013-05-24 22:37:00,50.1,35.5,30.16,NW,315,2.0,4.0,57,0.00,NA,NA,0.04,WeatherLink_script,2013-05-25 02:37:00,
2013-05-24 22:42:00,50.1,35.0,30.16,North,356,4.9,10.0,56,0.00,NA,NA,0.04,WeatherLink_script,2013-05-25 02:42:00,
2013-05-24 22:47:00,49.9,34.8,30.16,NW,319,4.1,9.0,56,0.00,NA,NA,0.03,WeatherLink_script,2013-05-25 02:47:00,
2013-05-24 22:52:00,49.8,35.2,30.16,NW,323,2.1,4.0,57,0.00,NA,NA,0.01,WeatherLink_script,2013-05-25 02:52:00,
2013-05-24 22:57:00,49.6,35.0,30.16,NNE,21,1.7,4.0,57,0.00,NA,NA,0.01,WeatherLink_script,2013-05-25 02:57:00,
2013-05-24 23:02:00,49.5,34.0,30.16,NW,323,3.7,8.0,55,0.00,NA,NA,0.00,WeatherLink_script,2013-05-25 03:02:00,
2013-05-24 23:07:00,49.5,34.9,30.16,WNW,303,2.2,3.0,57,0.00,NA,NA,0.00,WeatherLink_script,2013-05-25 03:07:00,
2013-05-24 23:12:00,49.3,33.8,30.16,North,356,2.3,4.0,55,0.00,NA,NA,0.00,WeatherLink_script,2013-05-25 03:12:00,
2013-05-24 23:17:00,49.3,33.8,30.16,NNW,329,1.8,4.0,55,0.00,NA,NA,0.00,WeatherLink_script,2013-05-25 03:17:00,
2013-05-24 23:22:00,49.2,34.6,30.16,North,351,3.3,6.0,57,0.00,NA,NA,0.00,WeatherLink_script,2013-05-25 03:22:00,
2013-05-24 23:27:00,49.0,34.4,30.16,North,0,2.3,4.0,57,0.00,NA,NA,0.00,WeatherLink_script,2013-05-25 03:27:00,
2013-05-24 23:32:00,48.9,33.9,30.16,WNW,303,4.0,6.0,56,0.00,NA,NA,0.00,WeatherLink_script,2013-05-25 03:32:00,
2013-05-24 23:37:00,48.8,34.7,30.16,North,0,2.3,4.0,58,0.00,NA,NA,0.00,WeatherLink_script,2013-05-25 03:37:00,
2013-05-24 23:42:00,48.6,34.5,30.16,East,98,0.6,3.0,58,0.00,NA,NA,0.00,WeatherLink_script,2013-05-25 03:42:00,
2013-05-24 23:47:00,48.5,33.9,30.16,SW,217,1.1,2.0,57,0.00,NA,NA,0.00,WeatherLink_script,2013-05-25 03:47:00,
2013-05-24 23:52:00,48.3,33.8,30.16,SW,217,1.2,2.0,57,0.00,NA,NA,0.00,WeatherLink_script,2013-05-25 03:52:00,
2013-05-24 23:57:00,48.2,34.1,30.17,SW,216,1.2,3.0,58,0.00,NA,NA,0.00,WeatherLink_script,2013-05-25 03:57:00,